Location: Hylo
(54.6785°N, 112.2142°W)
Time: 14:23:00
(UTC+00:00)

ACS3 Solar Sail - Visible Passes

Search period start: 20 September 2024 00:00
Search period end: 30 September 2024 00:00
Orbit: 970 x 1036 km, 97.4° (Epoch: 19 September)

Date Brightness Start Highest point End Pass type
(mag) Time Alt. Az. Time Alt. Az. Time Alt. Az.
20 Sep 1.9 03:02:01 10° SSE 03:08:24 69° ENE 03:14:46 10° N visible
20 Sep 3.5 04:47:24 10° SSW 04:52:56 30° W 04:58:29 10° NNW visible
21 Sep 2.0 03:34:50 10° S 03:41:16 78° WSW 03:47:43 10° NNW visible
21 Sep 4.1 05:22:03 10° SW 05:26:21 18° W 05:30:40 10° NW visible
22 Sep 2.3 02:24:18 10° SE 02:30:18 44° ENE 02:36:17 10° N visible
22 Sep 2.7 04:08:07 10° S 04:14:17 49° W 04:20:29 10° NNW visible
22 Sep 4.5 05:58:37 10° W 05:59:55 11° WNW 06:01:14 10° WNW visible
23 Sep 1.9 02:56:34 10° SSE 03:02:55 67° ENE 03:09:15 10° N visible
23 Sep 3.4 04:41:48 10° SSW 04:47:23 31° W 04:53:00 10° NNW visible
24 Sep 2.9 01:46:54 10° ESE 01:52:11 28° NE 01:57:27 10° N visible
24 Sep 2.0 03:29:23 11° S 03:35:38 81° WSW 03:42:04 10° NNW visible
24 Sep 4.1 05:16:13 10° SW 05:20:39 19° W 05:25:05 10° NW visible
25 Sep 2.4 02:18:36 10° SE 02:24:33 42° ENE 02:30:27 10° N visible
25 Sep 2.6 04:02:34 12° S 04:08:28 51° W 04:14:41 10° NNW visible
25 Sep 4.5 05:52:12 10° W 05:54:02 11° WNW 05:55:52 10° WNW visible
26 Sep 1.9 02:50:41 10° SSE 02:56:59 64° ENE 03:03:17 10° N visible
26 Sep 3.4 04:35:45 10° SSW 04:41:25 32° W 04:47:04 10° NNW visible
27 Sep 1.9 03:23:32 12° SSE 03:29:33 84° WSW 03:35:57 10° NNW visible
27 Sep 4.0 05:09:55 10° SW 05:14:29 20° W 05:19:03 10° NW visible
28 Sep 2.4 02:12:29 10° SE 02:18:21 40° ENE 02:24:10 10° N visible
28 Sep 2.5 03:56:34 13° S 04:02:12 54° W 04:08:26 10° NNW visible
28 Sep 4.4 05:45:26 10° W 05:47:42 12° WNW 05:49:58 10° NW visible
29 Sep 1.9 02:44:21 10° SSE 02:50:37 61° ENE 02:56:52 10° N visible
29 Sep 3.3 04:29:32 11° SSW 04:34:59 34° W 04:40:42 10° NNW visible
